Notices

What's New in latest Release from April 7th, 2021:

- Updated Glossary, including Speed of Maximum Gust, and Total Hourly Precipitation

- Updated national and regional climate services offices contacts and prices information

- Addition of station inventory lists for 1981-2010, 1971-2000, and 1961-1990 Normals.

If you haven't already, please take our survey and provide feedback about our website: https://eccc.sondage-survey.ca/f/LanguageSelection.aspx?s=442ca660-fcf1-47c0-95a9-59707d6fd709

Hourly Data Report for May 07, 2020

MIRAMICHI RCS
NEW BRUNSWICK
Current Station Operator: ECCC - MSC

47°00'34.000" N
65°27'54.000" W
33.00 m
8100989
71744
ACQ

Download Data

Hourly Data (May 2020)
Hourly Data Report for May 7, 2020
TIME
LST
Temp Definition
°C
Dew Point Definition
°C
Rel Hum Definition
%
Precip. Amount Definition
mm

Wind Dir Definition
10's deg

Wind Spd Definition
km/h
Visibility Definition
km
Stn Press Definition
kPa
Hmdx Definition


Wind Chill Definition


Weather Definition


00:00 0.6 -1.2 88 LegendMM 27 2   100.31     LegendNANA
01:00 -0.6 -2.4 88 LegendMM   0   100.28     LegendNANA
02:00 -1.4 -2.6 91 LegendMM   0   100.23     LegendNANA
03:00 -2.2 -4.0 88 LegendMM 9 6   100.16   -5 LegendNANA
04:00 -1.6 -3.3 88 LegendMM 25 2   100.11   -2 LegendNANA
05:00 -1.7 -2.7 93 LegendMM 33 3   100.12   -3 LegendNANA
06:00 -0.8 -2.0 92 LegendMM 23 1   100.10   -1 LegendNANA
07:00 1.4 0.1 91 LegendMM 11 3   100.07     LegendNANA
08:00 3.5 -0.7 74 LegendMM 6 5   100.05     LegendNANA
09:00 6.1 0.4 67 LegendMM 10 2   99.98     LegendNANA
10:00 8.0 -1.1 53 LegendMM 4 5   99.99     LegendNANA
11:00 8.9 -3.0 43 LegendMM 1 2   99.94     LegendNANA
12:00 9.4 -2.8 42 LegendMM 12 3   99.85     LegendNANA
13:00 10.1 -3.8 37 LegendMM 2 8   99.81     LegendNANA
14:00 11.0 -5.8 30 LegendMM 32 7   99.75     LegendNANA
15:00 10.6 -5.7 31 LegendMM 35 7   99.67     LegendNANA
16:00 10.6 -4.0 36 LegendMM 6 8   99.64     LegendNANA
17:00 10.4 -5.4 33 LegendMM 14 6   99.63     LegendNANA
18:00 9.5 -1.3 47 LegendMM 6 8   99.64     LegendNANA
19:00 8.6 -1.1 50 LegendMM 11 6   99.69     LegendNANA
20:00 7.3 -0.9 56 LegendMM 7 5   99.70     LegendNANA
21:00 6.0 -0.5 63 LegendMM 6 2   99.75     LegendNANA
22:00 3.7 -0.5 74 LegendMM 3 6   99.77     LegendNANA
23:00 2.7 0.2 84 LegendMM 1 5   99.79     LegendNANA

Notes on Data Quality.

Legend

  • E = Estimated
  • M = Missing
  • NA = Not Available*
  • [empty] = Indicates an unobserved value
Date modified: